Regional Weather Roundup
Issued by NWS New Orleans/Baton Rouge, LA

Home | Current Version | Previous Version | Graphics & Text | Print | Product List | Glossary On
Versions: 1 2 3 4 5 6 7 8 9 10 11 12 13 14 15 16 17 18 19 20 21 22 23 24 25 26 27 28 29 30 31 32 33 34 35 36 37 38 39 40 41 42 43 44 45 46 47 48 49 50
158
ASUS44 KLIX 221510
RWRLIX
NEW ORLEANS REGIONAL WEATHER ROUNDUP
NATIONAL WEATHER SERVICE NEW ORLEANS LA
1000 AM CDT MON SEP 22 2014

NOTE: "FAIR" INDICATES FEW OR NO CLOUDS BELOW 12,000 FEET WITH NO
      SIGNIFICANT WEATHER AND/OR OBSTRUCTIONS TO VISIBILITY.
      SKY/WX - SKY CONDITION AND SIGNIFICANT WEATHER.
      TMP - AIR TEMPERATURE.     DP    - DEWPOINT TEMPERATURE.
      RH  - RELATIVE HUMIDITY.   PRES  - PRESSURE.
      HI  - HEAT INDEX.          WCI   - WIND CHILL INDEX.

*  THESE STATIONS ARE NOT NWS OR FAA STATIONS AND ARE NOT UNDER
   NWS QUALITY CONTROL.

LAZ038-040-048-061>063-065>067-069-221600-
SOUTHEAST LOUISIANA

CITY           SKY/WX    TMP DP  RH WIND       PRES   REMARKS
N.O. AUDUBON     N/A     87  73  61 MISG        N/A
N.O. INTL ARPT MOSUNNY   84  69  60 N9        30.04S
N.O. LAKEFRONT SUNNY     83  71  67 N8        30.05S
N.O. DOWNTOWN*   N/A     82  68  61 N3        30.05S
SLIDELL        SUNNY     83  69  62 N9        30.05R
BATON ROUGE    SUNNY     81  71  71 N6        30.07R
BOOTHVILLE     SUNNY     83  76  79 N8        30.03S
BELLE CHASSE   MOSUNNY   85  69  58 N7        30.04S
BOGALUSA*        N/A     79  69  71 N5        30.07F
GALLIANO*      NOT AVBL
NEW ROADS*       N/A     78  72  81 N6        30.08R
GONZALES*        N/A     82  72  71 CALM      30.05S
HAMMOND*       SUNNY     81  70  69 N6        30.07S
HOUMA*         SUNNY     82  54  36 N12       30.05R
PORT FOURCHON* SUNNY     84  70  61 NE12      30.06S

$$

MSZ070-080>082-221600-
SOUTHERN MISSISSIPPI

CITY           SKY/WX    TMP DP  RH WIND       PRES   REMARKS
MCCOMB         SUNNY     77  64  64 NE9       30.09R
GULFPORT       SUNNY     84  69  60 N12       30.04R
BILOXI         SUNNY     82  70  65 NE6       30.04S
PASCAGOULA     SUNNY     82  69  64 VRB7      30.04F
STENNIS ARPT*  SUNNY     82  66  57 N9        30.05R

$$

COASTAL OBSERVATIONS
LAKE AND NEARSHORE STATIONS

STATION/POSITION TIME  TEMP    WIND        PRES    WAVE
                       AIR SEA DIR/SP/G            HT/PER
                 (UTC) (F)     (DEG/KT/KT) (MB)    (FT/S)
PASCAGOULA       1500   82     350/  8/ 11 1017.0
WAVELAND YACHT   1500   78     330/  3/  4 1016.8
GRAND ISLE       1500   82 82   30/  9/ 12 1017.6
SOUTHWEST PASS   1500   88 89   60/ 15/ 16 1016.7
NEW CANAL        1500   80 81  350/  6/  8 1017.9
SHELL BEACH      1500   79 78  360/  9/  9 1017.3

OFFSHORE STATIONS

STATION/POSITION TIME  TEMP    WIND        PRES    WAVE
                       AIR SEA DIR/SP/G            HT/PER
                 (UTC) (F)     (DEG/KT/KT) (MB)    (FT/S)
64 S DAUPHIN ISL 1359   82 84   70/ 14/ 16 1016.8    2/ 6

$$




USA.gov is the U.S. government's official web portal to all federal, state and local government web resources and services.